Location: Gleizolles
(44.4833°N, 6.7667°E)
Time: 15:03:45
(UTC+00:00)

Vanguard 1 - Pass Details

Date: 26 June 2024
Orbit: 650 x 3826 km, 34.3° (Epoch: 22 July)

Event Time Altitude Azimuth Distance (km) Brightness Sun altitude
Rises 11:45:57 0° 251° (WSW) 5,112 13.9 68.7°
Reaches altitude 10° 11:50:17 10° 244° (WSW) 3,598 13.3 68.6°
Maximum altitude 11:57:33 34° 183° (S) 1,591 12.2 68.4°
Drops below altitude 10° 12:02:18 10° 119° (ESE) 2,327 12.2 68.2°
Sets 12:04:32 0° 108° (ESE) 3,101 12.7 68.1°
